Location: Dvur Kralove nad Labem
(50.4330°N, 15.8170°E)
Time: 06:01:40
(UTC+01:00)

ISS - Pass Details

Date: 23 February 2020
Orbit: 415 x 423 km, 51.6° (Epoch: 27 February)

Event Time Altitude Azimuth Distance (km) Brightness Sun altitude
Exits shadow 05:54:53 - 216° (SW) 2,324 -0.3 -10.1°
Reaches altitude 10° 05:57:05 10° 203° (SSW) 1,497 -1.1 -9.8°
Maximum altitude 05:59:55 25° 145° (SE) 880 -1.6 -9.3°
Drops below altitude 10° 06:02:47 10° 88° (E) 1,507 0.7 -8.9°
Sets 06:05:06 0° 75° (ENE) 2,377 1.6 -8.5°
